sat.trackr.live / text

‹ back to catalog

STARLINK-32933

NORAD 63082 · 2025-037F

PAYLOAD ACTIVE UNKNOWN

§ Identity

Operator
Country
US
Launch date
2025-02-23
Launch site
AFWTR
Launch vehicle
Mass (kg)
RCS (m²)

Purposes: comms

External: N2YO · Heavens-Above · Gunter

§ Orbital elements

Epoch: 2026-09-20T18:08:37.730400Z

Period
94.14 min
Inclination
70.0024°
Eccentricity
0.0002082
Mean motion
15.29588184 rev/d
Perigee alt
475.6 km
Apogee alt
478.5 km
Semi-major
6,855.2 km
B*
6.3657e-4
RAAN
220.1260°
Arg perigee
275.4934°
Mean anomaly
84.6003°
Rev number
8,782

§ Raw data

STARLINK-329331 63082U 25037F   26263.75599225  .00018219  00000+0  63657-3 0  99992 63082  70.0024 220.1260 0002082 275.4934  84.6003 15.29588184 87820

JSON: /api/v1/satellites/63082 · /tle

For live sub-satellite position, see the globe view (requires WebGL).

§ Visibility from observer

Set your observer location to see the next 7 days of passes ≥ 10°. The values pass through the URL so the page stays shareable.

No JS? Fill the form by hand. The geolocation button needs JavaScript.